Regional Weather Roundup
Issued by NWS Sterling, VA

Home | Current Version | Previous Version | Graphics & Text | Print | Product List | Glossary On
Versions: 1 2 3 4 5 6 7 8 9 10 11 12 13 14 15 16 17 18 19 20 21 22 23 24 25 26 27 28 29 30 31 32 33 34 35 36 37 38 39 40 41 42 43 44 45 46 47 48 49 50
000
ASUS41 KLWX 280110
RWRLWX

REGIONAL WEATHER ROUNDUP
NATIONAL WEATHER SERVICE BALTIMORE MD/WASHINGTON DC
900 PM EDT SUN JUL 27 2014

Note: "FAIR" indicates few or no clouds below 12,000 feet
with no significant weather and/or obstructions to visibility.
 TC=TEMPERATURE CELSIUS

 * =Non NWS site. Station does not report precipitation (e.g. rain,
    snow, etc.), thunder, or fog.

DCZ001-MDZ009-015-VAZ040>042-051-053>054-280200-
WASHINGTON METRO
  /KDAA//-FT BELVOIR

CITY           SKY/WX    TMP DP  RH WIND       PRES   REMARKS
WASHINGTON NAT MOCLDY    81  71  71 S9        29.69F
DULLES         PTCLDY    77  70  79 S9        29.68F
ANDREWS AFB    PTCLDY    77  72  84 S7        29.69F
QUANTICO       PTCLDY    80  72  76 SW12      29.70F
COLLEGE PARK*  PTCLDY    81  72  74 S5        29.68F
LEESBURG*      MOCLDY    79  73  83 S3        29.69F
MANASSAS*      MOCLDY    79  72  78 S3        29.69F
GAITHERSBURG*  CLOUDY    79  70  73 S3        29.73R

$$

MDZ006>007-011-014-280200-
BALTIMORE METRO

CITY           SKY/WX    TMP DP  RH WIND       PRES   REMARKS
BWI AIRPORT    MOCLDY    79  70  74 S3        29.68F
MD SCIENCE CTR   N/A     82  70  66 MISG      29.68F
MARTIN STATE   MOCLDY    81  73  78 S7        29.69F
ANNAPOLIS      MOCLDY    79  71  76 S7        29.68F
FORT MEADE*    MOCLDY    77  70  78 S5        29.71F

$$

MDZ012-015-019>023-280200-
MARYLAND EASTERN SHORE

CITY           SKY/WX    TMP DP  RH WIND       PRES   REMARKS
OCEAN CITY     MOCLDY    78  71  79 SW6       29.74F
SALISBURY      PTCLDY    78  72  81 S7        29.74R
BAY BRIDGE AP*   N/A     79  72  78 S7        29.70S
CAMBRIDGE*     PTCLDY    79  72  78 S5        29.72S
EASTON*        MOCLDY    81  73  78 S7        29.75S

$$

MDZ017>025-280200-
SOUTHERN MARYLAND

CITY           SKY/WX    TMP DP  RH WIND       PRES   REMARKS
PATUXENT RIVER CLEAR     78  71  79 S6        29.71F
ST INIGOES     CLEAR     79  69  71 S8        29.72S
LEONARDTOWN*   CLEAR     77  70  78 S5        29.74S

$$

MDZ003>005-280200-
NORTH CENTRAL MARYLAND

CITY           SKY/WX    TMP DP  RH WIND       PRES   REMARKS
FREDERICK*     CLOUDY    79  73  83 S3        29.70S
HAGERSTOWN APT LGT RAIN  77  71  82 CALM      29.67F
WESTMINSTER*   CLOUDY    79  73  83 SW8       29.70S

$$

MDZ501>502-280200-
WESTERN MARYLAND

CITY           SKY/WX    TMP DP  RH WIND       PRES   REMARKS
OAKLAND*       CLOUDY    64 N/A N/A SW8       29.77F
CUMBERLAND*    CLOUDY    73  68  83 E7        29.71S

$$

VAZ025>031-280200-
SHENANDOAH VALLEY

CITY           SKY/WX    TMP DP  RH WIND       PRES   REMARKS
WINCHESTER*    LGT RAIN  77  70  78 S7        29.68F
STAUNTON*      CLEAR     77  66  67 S7        29.75F

$$

WVZ021-048>050-054>055-280200-
EASTERN WEST VIRGINIA PANHANDLE

CITY           SKY/WX    TMP DP  RH WIND       PRES   REMARKS
MARTINSBURG    CLOUDY    76  71  85 S8        29.66F
PETERSBURG*    RAIN      71  65  81 W5        29.72F

$$

VAZ036>039-050-280200-
CENTRAL FOOTHILLS

CITY           SKY/WX    TMP DP  RH WIND       PRES   REMARKS
CHARLOTTESVILL PTCLDY    79  70  74 S10       29.72F
ORANGE*        CLOUDY    77  70  78 S7        29.73F

$$

VAZ055>057-280200-
NORTH AND CENTRAL PIEDMONT

CITY           SKY/WX    TMP DP  RH WIND       PRES   REMARKS
FREDERICKSBRG* PTCLDY    80  73  77 S8        29.71F
STAFFORD*      PTCLDY    79  79  98 SW6       29.74F

$$

NCZ024-NYZ072-PAZ021-071-VAZ022-071-280200-
OTHER REGIONAL OBSERVATIONS

CITY           SKY/WX    TMP DP  RH WIND       PRES   REMARKS
NEW YORK CITY  MOCLDY    83  62  49 CALM      29.70S
PHILADELPHIA   LGT RAIN  81  71  71 S10       29.68S
PITTSBURGH     MOCLDY    70  67  90 E3        29.67F
ROANOKE        PTCLDY    79  66  64 W5        29.80F
RICHMOND       PTCLDY    80  70  71 SW8       29.75S
RALEIGH        CLOUDY    82  70  66 SW10      29.79F

$$

ANZ530>537-280200-
MARINE OBSERVATIONS

STATION/POSITION TIME  TEMP    WIND        PRES
                       AIR SEA DIR/SP/G
                 (UTC) (F)     (DEG/KT/KT) (MB)
THOMAS PT LIGHT  0100   80 80  180/ 14/ 15 1005.6F
BALT KEY BRIDGE  0100   81     180/ 10/ 12 1004.5F
COVE POINT       0100   79     200/  8/ 10 1006.2S
LEWISETTA        0100   79 80  220/  5/  7 1006.4F
SOLOMONS ISLAND  0100      80                N/A
PINEY POINT      0100          210/  8/  9   N/A

$$




USA.gov is the U.S. government's official web portal to all federal, state and local government web resources and services.